星链-30127 (STARLINK-30127 )

导读 | 豆包AI

STARLINK-30127是美国太空探索技术公司 SpaceX 星链星座组网卫星,于2023年5月19日发射,星链系统旨在为全球提供高速互联网接入服务,尤其覆盖偏远和网络基础设施薄弱地区,该卫星加入星座后,进一步扩充了星链低轨卫星网络的服务覆盖范围与容量。

基本信息
目录编号:
56699
目录名称:
STARLINK-30127
国际标识:
2023-067M
轨道中心:
EARTH
卫星名称:
星链-30127
卫星全名:
星链-30127 (STARLINK-30127 )
卫星状态:
在轨 (已飞行1077 天)
发射日期:
2023-05-19 UTC
国别 :
美国 (US)
星等 :
--
轨道信息
数据来源 国际轨道数据
星历时间: 2026-04-30T08:58:44+0800
15小时前
查看轨道信息
半长轴: 6862.661km
偏心率: 0.0009073
轨道倾角: 43.010°
近地点辐角 262.210°
升交点赤经 351.267°
平近点角 97.772°
近地点: 478.297km
远地点: 490.751km
周期: 94.297分钟
每日圈数: 15.270877
详细信息
固有亮度:
5
最大亮度:
0.3
卫星平台:
Starlink v2.0 mini
覆盖范围:
全球
运营商:
太空探索技术公司
运营商所在国:
美国
制造商(研发单位):
太空探索技术公司
制造商所在国:
美国
使用方式:
暂无
卫星简介
星链(Starlink)计划是由太空探索技术公司(SpaceX)提出的一个巨型低轨卫星互联网星座项目,计划在2019年至2024年间在太空搭建由约1.2万颗卫星组成的“星链”网络,其中1584颗将部署在地球上空550千米处的近地轨道,并从2020年开始工作。该卫星仍在工作。
2D轨道图
3D轨道图
轨道高度分析图
轨道倾角分析图
轨道综合分析图
查看轨道综合分析图